Regional Weather Roundup
Issued by NWS

Home | Current Version | Previous Version | Text Only | Print | Product List | Glossary Off
Versions: 1 2 3 4 5 6 7 8 9 10 11 12 13 14 15 16 17 18 19 20 21 22 23 24 25 26 27 28 29 30 31 32 33 34 35 36 37 38 39 40 41 42 43 44 45 46 47 48 49 50

000
ASUS45 KCYS 300610
RWRWY

WYOMING REGIONAL WEATHER ROUNDUP
NATIONAL WEATHER SERVICE CHEYENNE WY
1200 AM MDT THU JUL 30 2015

NOTE:  "FAIR" INDICATES FEW OR NO CLOUDS BELOW 12,000 FEET
WITH NO SIGNIFICANT WEATHER AND/OR OBSTRUCTIONS TO VISIBILITY.

WYZ001-300700-
YELLOWSTONE NATIONAL PARK

CITY           SKY/WX    TMP DP  RH WIND       PRES   REMARKS
LK YELLOWSTONE   N/A     42  35  76 VRB3      30.52S
6HR MIN TEMP:  42; 6HR MAX TEMP:  68;

W YELLOWSTONE  NOT AVBL

$$
WYZ002>013-054>058-071-098>099-300700-
NORTHERN WYOMING

CITY           SKY/WX    TMP DP  RH WIND       PRES   REMARKS
JACKSON        FAIR      46  39  76 NE5       30.43R
CODY           FAIR      57  32  38 CALM      30.33R
GREYBULL       FAIR      64  34  32 SW5       30.23R
6HR MIN TEMP:  62; 6HR MAX TEMP:  83;

WORLAND        FAIR      57  33  40 SW3       30.24R
6HR MIN TEMP:  55; 6HR MAX TEMP:  83;

SHERIDAN       FAIR      55  44  66 S5        30.26R
6HR MIN TEMP:  53; 6HR MAX TEMP:  83;

BUFFALO        FAIR      59  38  45 W9        30.32S
6HR MIN TEMP:  58; 6HR MAX TEMP:  80;

GILLETTE       FAIR      52  38  58 S5        30.27R
6HR MIN TEMP:  50; 6HR MAX TEMP:  80;

HULETT         FAIR      55  37  50 SE8       30.28R
NEWCASTLE      FAIR      55  37  50 MISG      30.27R

$$
WYZ014>020-022>026-101>103-300700-
CENTRAL WYOMING

CITY           SKY/WX    TMP DP  RH WIND       PRES   REMARKS
BIG PINEY      FAIR      53  31  42 N12       30.44S
6HR MIN TEMP:  51; 6HR MAX TEMP:  76;

PINEDALE       FAIR      46  34  61 W7        30.45S
DUBOIS         FAIR      50  30  46 W10       30.45S
LANDER         FAIR      65  28  24 W12       30.31S
6HR MIN TEMP:  62; 6HR MAX TEMP:  82;

RIVERTON       FAIR      66  24  20 NE7       30.32R
6HR MIN TEMP:  61; 6HR MAX TEMP:  81;

CASPER         FAIR      52  27  38 NW7       30.31R
6HR MIN TEMP:  51; 6HR MAX TEMP:  83;

DOUGLAS        FAIR      60  45  57 CALM      30.29R
6HR MIN TEMP:  58; 6HR MAX TEMP:  83;


$$
WYZ021-027>030-104>119-300700-
SOUTHERN WYOMING

CITY           SKY/WX    TMP DP  RH WIND       PRES   REMARKS
EVANSTON       FAIR      61  21  21 E3        30.44S
6HR MIN TEMP:  59; 6HR MAX TEMP:  78;

KEMMERER       FAIR      54  30  40 NW12      30.45S
FORT BRIDGER   CLEAR     61  18  18 W8        30.46S
ROCK SPRINGS   FAIR      63  14  15 W7        30.41R
6HR MIN TEMP:  60; 6HR MAX TEMP:  78;

DIXON          FAIR      54  22  29 E7        30.41S
RAWLINS        FAIR      51  14  22 NW3       30.40S
6HR MIN TEMP:  50; 6HR MAX TEMP:  80;

SARATOGA       FAIR      48  21  34 SE3       30.43R
LARAMIE        FAIR      57  46  66 S3        30.43R
6HR MIN TEMP:  55; 6HR MAX TEMP:  78;

CHEYENNE       FAIR      64  46  52 S8        30.36R
6HR MIN TEMP:  64; 6HR MAX TEMP:  79;

TORRINGTON     FAIR      68  51  54 NE3       30.25R
6HR MIN TEMP:  67; 6HR MAX TEMP:  85;

PINE BLUFFS    FAIR      64  43  45 S17G24    30.31R

$$


USA.gov is the U.S. government's official web portal to all federal, state and local government web resources and services.